This is the latest recevied weather packets stored in our database for station/object K1RFS. If no packets are shown the sender has not sent any weather packets the latest 10 day(s).
| Time | Temp. | Humidity | Pressure | Rain* | Wind** | Luminosity | Snow |
|---|---|---|---|---|---|---|---|
| 1788576536 | 26.11° C | 23% | 998.3 hPa | 0 mm | - | 0 W/m² | - |
| 1788576236 | 26.11° C | 23% | 998.1 hPa | 0 mm | - | 0 W/m² | - |
| 1788575932 | 26.67° C | 23% | 998.1 hPa | 0 mm | - | 0 W/m² | - |
| 1788575621 | 26.67° C | 23% | 998 hPa | 0 mm | - | 0 W/m² | - |
| 1788575319 | 26.67° C | 23% | 997.8 hPa | 0 mm | - | 0 W/m² | - |
| 1788575016 | 26.67° C | 23% | 998 hPa | 0 mm | - | 0 W/m² | - |
| 1788574716 | 26.67° C | 23% | 997.7 hPa | 0 mm | - | 0 W/m² | - |
| 1788574411 | 26.67° C | 23% | 997.8 hPa | 0 mm | - | 0 W/m² | - |
| 1788574107 | 26.67° C | 23% | 997.6 hPa | 0 mm | - | 0 W/m² | - |
| 1788573801 | 27.22° C | 23% | 997.8 hPa | 0 mm | - | 1 W/m² | - |
| 1788573500 | 27.22° C | 23% | 997.6 hPa | 0 mm | - | 2 W/m² | - |
| 1788573199 | 27.22° C | 23% | 997.7 hPa | 0 mm | - | 3 W/m² | - |
| 1788572899 | 27.22° C | 22% | 997.7 hPa | 0 mm | - | 5 W/m² | - |
| 1788572594 | 27.78° C | 22% | 997.7 hPa | 0 mm | - | 7 W/m² | - |
| 1788572290 | 27.78° C | 22% | 997.7 hPa | 0 mm | - | 9 W/m² | - |
| 1788571986 | 27.78° C | 22% | 997.8 hPa | 0 mm | - | 11 W/m² | - |
| 1788571681 | 28.33° C | 22% | 998 hPa | 0 mm | - | 13 W/m² | - |
| 1788571376 | 28.33° C | 22% | 997.6 hPa | 0 mm | - | 17 W/m² | - |
| 1788571073 | 28.33° C | 22% | 997.6 hPa | 0 mm | - | 19 W/m² | - |
| 1788570768 | 28.33° C | 22% | 997.7 hPa | 0 mm | - | 22 W/m² | - |
| 1788570458 | 28.89° C | 22% | 997.7 hPa | 0 mm | - | 25 W/m² | - |
| 1788570153 | 28.89° C | 22% | 997.6 hPa | 0 mm | - | 30 W/m² | - |
| 1788569850 | 29.44° C | 22% | 997.6 hPa | 0 mm | - | 38 W/m² | - |
| 1788569545 | 28.89° C | 21% | 997.6 hPa | 0 mm | - | 47 W/m² | - |
| 1788569244 | 29.44° C | 21% | 997.6 hPa | 0 mm | - | 55 W/m² | - |
* Rain latest hour (hover to see other rain measurements)
** Current wind speed in m/s (hover to see current wind gust speed)